This is the latest recevied weather packets stored in our database for station/object KC5TIL. If no packets are shown the sender has not sent any weather packets the latest 10 day(s).
| Time | Temp. | Humidity | Pressure | Rain* | Wind** | Luminosity | Snow |
|---|---|---|---|---|---|---|---|
| 1787947851 | 38.89° C | 36% | 1016.6 hPa | 0 mm | - | 522 W/m² | - |
| 1787947550 | 39.44° C | 32% | 1016.9 hPa | 0 mm | - | 548 W/m² | - |
| 1787947245 | 38.33° C | 33% | 1016.7 hPa | 0 mm | - | 541 W/m² | - |
| 1787946945 | 38.89° C | 33% | 1017.1 hPa | 0 mm | - | 564 W/m² | - |
| 1787946643 | 38.33° C | 35% | 1016.9 hPa | 0 mm | - | 587 W/m² | - |
| 1787946338 | 38.89° C | 33% | 1017.1 hPa | 0 mm | - | 597 W/m² | - |
| 1787946033 | 37.78° C | 34% | 1017.2 hPa | 0 mm | - | 609 W/m² | - |
| 1787945733 | 38.33° C | 34% | 1017.1 hPa | 0 mm | - | 640 W/m² | - |
| 1787945428 | 38.33° C | 33% | 1017.4 hPa | 0 mm | - | 632 W/m² | - |
| 1787945124 | 38.33° C | 36% | 1017.2 hPa | 0 mm | - | 661 W/m² | - |
| 1787944821 | 38.33° C | 34% | 1017.3 hPa | 0 mm | - | 672 W/m² | - |
| 1787944516 | 37.78° C | 36% | 1017.3 hPa | 0 mm | - | 660 W/m² | - |
| 1787944212 | 37.78° C | 34% | 1017.3 hPa | 0 mm | - | 618 W/m² | - |
| 1787943911 | 37.22° C | 35% | 1017.8 hPa | 0 mm | - | 540 W/m² | - |
| 1787943608 | 37.78° C | 35% | 1017.5 hPa | 0 mm | - | 638 W/m² | - |
| 1787943307 | 38.33° C | 38% | 1017.8 hPa | 0 mm | - | 637 W/m² | - |
| 1787942996 | 37.22° C | 37% | 1018 hPa | 0 mm | - | 155 W/m² | - |
| 1787942692 | 37.78° C | 36% | 1017.6 hPa | 0 mm | - | 672 W/m² | - |
| 1787942390 | 37.78° C | 37% | 1018 hPa | 0 mm | - | 681 W/m² | - |
| 1787942086 | 37.22° C | 36% | 1018 hPa | 0 mm | - | 684 W/m² | - |
| 1787941782 | 38.33° C | 36% | 1018 hPa | 0 mm | - | 668 W/m² | - |
| 1787941480 | 37.78° C | 36% | 1018.2 hPa | 0 mm | - | 656 W/m² | - |
| 1787941180 | 37.78° C | 35% | 1018.2 hPa | 0 mm | - | 671 W/m² | - |
| 1787940875 | 36.67° C | 43% | 1018.4 hPa | 0 mm | - | 676 W/m² | - |
| 1787940573 | 36.67° C | 41% | 1018.4 hPa | 0 mm | - | 636 W/m² | - |
* Rain latest hour (hover to see other rain measurements)
** Current wind speed in m/s (hover to see current wind gust speed)